Temp
51 51 51 51 51 50 43 30 21 39 47 35 32 31 35 42 40 43 43 41 38 36 37 35 38 38 39 45 45 39 41 39 35 41 51 54 49 46 47 36 35 34 38 38
51 51 51 51 51 49 35 27 24 41 44 27 29 32 35 38 37 40 40 39 41 40 37 34 37 38 43 45 41 38 40 34 28 35 43 50 45 48 48 45 40 37 33 36
51 51 51 51 51 48 35 25 19 27 37 32 26 27 29 32 39 37 41 38 38 36 34 39 34 36 42 43 43 43 42 35 32 27 29 34 34 38 39 41 34 35 37 42
50 50 51 50 51 49 35 24 18 28 19 27 32 30 30 29 30 38 40 37 34 34 31 32 33 37 38 40 42 41 37 30 32 33 33 34 33 32 37 33 39 36 38 41
50 50 50 50 50 48 30 23 23 27 25 30 28 31 30 28 31 32 32 34 36 36 31 34 31 36 35 34 39 37 37 30 31 29 33 33 31 36 36 35 36 36 36 36
50 50 50 50 50 46 33 29 33 28 25 26 23 24 28 29 34 35 38 37 33 33 36 40 42 43 43 41 36 35 34 31 30 26 32 30 26 33 36 36 34 35 30 37
50 50 50 50 50 46 35 32 30 22 17 23 27 29 30 30 32 30 35 36 33 37 45 44 43 43 42 41 39 39 32 32 31 26 29 16 35 43 42 40 39 41 41 42
50 50 50 50 50 48 40 35 31 21 12 27 29 29 29 31 31 29 31 35 39 43 40 32 30 31 32 33 36 37 39 34 27 22 24 30 36 41 35 35 36 43 43 45
49 49 49 49 50 50 37 38 39 32 25 24 32 29 30 24 23 26 32 38 41 38 32 29 25 25 28 26 30 39 37 37 30 22 16 16 31 41 45 43 27 42 43 43
49 49 49 49 49 49 38 38 40 36 28 31 32 26 26 30 27 23 30 33 34 37 30 26 26 26 35 25 26 26 29 26 26 25 23 27 37 43 45 26 30 42 43 42
48 48 48 48 49 49 42 36 38 35 29 33 36 36 31 31 29 23 28 27 28 31 28 28 28 27 30 30 29 29 27 24 24 26 23 19 41 41 34 37 40 42 41 41
48 48 48 48 48 48 47 36 40 42 34 33 37 39 41 38 38 31 33 29 31 30 30 31 30 28 27 29 25 34 23 28 25 27 25 34 38 38 41 42 40 41 40 37
47 47 47 47 47 47 46 37 36 37 32 31 32 32 39 44 41 43 29 33 37 34 37 32 32 28 31 26 26 30 33 36 27 30 33 35 38 39 41 41 40 41 41 36
47 47 47 47 47 47 47 38 41 37 34 27 30 42 37 44 43 41 40 38 41 40 35 32 31 29 35 28 31 29 32 34 30 27 33 36 38 39 40 40 40 37 36 34
46 46 47 47 46 46 43 41 41 40 34 26 30 38 42 45 43 41 41 39 36 33 30 32 31 33 32 29 29 27 32 30 27 25 35 35 36 39 40 39 38 37 35 35
46 45 45 44 45 45 38 32 40 43 40 31 26 38 37 40 41 38 37 37 36 35 32 32 33 37 33 27 24 33 35 37 38 33 38 38 39 40 41 39 39 37 35 34
44 43 44 45 43 41 35 33 39 44 41 31 28 29 36 40 38 34 37 37 35 35 31 30 31 31 32 24 22 33 37 39 39 39 39 36 38 36 39 40 37 37 34 33
44 45 46 47 43 42 37 41 44 42 36 35 28 29 31 37 31 31 33 32 32 31 30 28 29 31 30 23 31 35 40 38 38 39 40 40 39 39 36 36 34 32 30 30
46 46 47 42 38 34 37 47 45 42 36 26 26 23 22 33 31 30 31 31 25 29 27 29 30 23 23 30 33 34 36 35 36 39 38 38 37 37 36 35 32 30 29 29
47 41 36 28 36 45 44 36 27 24 26 25 23 26 26 29 29 26 27 30 25 21 26 28 23 25 33 36 37 37 37 37 38 34 31 35 35 35 33 33 32 32 32 32
35 28 26 36 43 35 28 22 24 23 22 25 27 26 26 34 25 23 27 24 24 20 23 23 22 23 29 36 39 40 38 39 39 41 40 39 37 34 32 31 32 31 30 29
36 36 36 33 30 24 23 20 25 24 23 26 25 26 25 29 31 23 26 24 24 22 25 23 18 24 30 31 33 34 37 37 39 41 38 37 34 33 32 31 30 29 29 29
36 33 31 25 25 12 15 11 21 17 24 30 32 28 28 31 34 28 27 18 18 26 18 21 25 30 30 29 30 31 32 33 33 33 32 31 30 30 30 28 23 27 27 28
26 25 18 20 14 21 20 22 23 30 31 32 32 30 29 30 27 25 24 26 29 24 18 23 29 29 29 30 32 31 28 29 30 28 27 25 24 19 21 21 21 25 24 26
28 29 20 25 28 30 31 31 30 30 33 32 31 31 32 29 22 26 25 21 19 19 15 22 24 31 31 31 31 28 26 23 21 17 20 20 21 21 18 15 20 16 15 16
31 29 28 27 23 25 25 29 29 34 32 32 32 29 27 25 27 23 19 21 15 16 18 25 30 31 31 30 29 27 23 21 20 21 22 20 16 16 16 21 17 8 13 14
30 28 27 21 22 21 26 30 31 35 32 25 27 22 26 26 22 23 24 17 17 24 27 31 32 31 30 30 29 27 24 25 26 28 28 27 26 26 26 24 23 22 17 16
MSLP
1015.78 1016.24 1016.49 1016.68 1016.66 1016.77 1017.00 1018.13 1019.34 1018.70 1018.22 1018.55 1018.51 1018.13 1017.70 1016.89 1016.10 1015.57 1015.42 1014.93 1014.64 1014.64 1014.59 1014.30 1013.59 1012.84 1012.95 1013.13 1013.17 1013.00 1012.81 1011.89 1009.82 1007.97 1007.42 1006.77 1006.95 1006.77 1007.08 1007.29 1007.58 1007.31 1006.83 1005.19
1015.73 1016.07 1016.46 1016.81 1016.74 1016.74 1017.76 1019.20 1019.90 1018.97 1018.61 1018.92 1019.02 1018.65 1018.08 1017.49 1016.63 1016.21 1016.26 1015.78 1015.36 1015.25 1015.31 1015.11 1014.20 1013.86 1014.02 1013.97 1014.29 1014.31 1013.79 1012.98 1011.58 1008.72 1008.06 1007.50 1007.70 1007.36 1007.67 1007.77 1007.52 1006.83 1006.98 1005.79
1015.85 1016.17 1016.40 1016.70 1016.90 1017.01 1017.86 1019.80 1020.60 1020.24 1019.66 1019.68 1019.49 1019.35 1018.56 1017.79 1016.81 1016.61 1016.46 1016.50 1016.24 1016.05 1015.63 1015.07 1014.56 1014.40 1014.36 1014.72 1015.13 1015.07 1014.75 1014.02 1013.31 1012.30 1011.97 1011.40 1009.85 1009.18 1008.64 1008.26 1007.81 1007.65 1007.01 1006.20
1015.95 1016.19 1016.33 1016.61 1016.87 1017.20 1018.01 1019.78 1020.75 1020.16 1020.62 1020.27 1019.98 1019.68 1019.04 1017.97 1017.41 1016.84 1016.55 1016.52 1016.26 1016.21 1016.08 1015.42 1014.84 1014.71 1014.57 1014.77 1014.79 1014.63 1014.90 1015.05 1014.48 1013.40 1013.02 1012.82 1011.94 1010.97 1010.13 1008.96 1007.92 1007.24 1007.70 1007.28
1015.88 1016.11 1016.34 1016.50 1016.85 1017.25 1018.50 1020.05 1020.82 1020.75 1020.47 1020.17 1020.34 1020.01 1018.87 1018.04 1018.10 1017.83 1016.85 1016.48 1016.10 1016.22 1016.01 1014.93 1014.58 1014.45 1014.54 1014.46 1014.61 1014.92 1015.25 1014.82 1014.93 1014.24 1013.04 1012.60 1012.21 1010.81 1010.53 1009.56 1009.19 1008.35 1008.65 1008.09
1015.76 1015.75 1016.16 1016.48 1016.76 1017.28 1018.45 1019.68 1019.83 1020.07 1020.43 1020.30 1020.29 1019.45 1018.39 1017.97 1018.05 1017.23 1016.92 1016.76 1016.84 1016.02 1014.74 1014.74 1014.12 1014.02 1013.89 1013.95 1014.11 1014.67 1015.05 1014.81 1014.80 1013.89 1013.44 1012.71 1011.48 1009.44 1009.86 1009.80 1009.79 1009.56 1009.05 1008.68
1015.36 1015.65 1016.00 1016.27 1016.61 1017.13 1018.13 1018.99 1019.72 1020.58 1020.67 1020.16 1019.52 1018.79 1018.48 1018.45 1018.39 1017.71 1017.17 1016.98 1016.76 1015.62 1015.13 1014.49 1013.49 1013.30 1013.30 1013.46 1013.64 1014.12 1014.37 1014.38 1014.48 1013.86 1013.59 1012.30 1009.24 1009.04 1008.66 1008.85 1008.47 1008.71 1007.94 1007.80
1015.08 1015.43 1015.83 1016.18 1016.51 1017.00 1017.73 1018.53 1019.26 1019.97 1020.15 1019.47 1018.92 1018.75 1018.50 1018.53 1018.31 1017.66 1017.05 1016.25 1015.83 1015.78 1015.56 1015.00 1013.42 1013.00 1012.81 1012.39 1012.92 1013.08 1013.24 1013.70 1014.00 1013.86 1013.11 1010.83 1009.47 1008.36 1007.78 1008.12 1007.83 1007.21 1006.86 1006.61
1014.84 1015.24 1015.51 1015.86 1016.20 1016.57 1017.46 1017.77 1018.15 1019.02 1019.28 1018.17 1018.10 1018.07 1018.08 1018.02 1017.90 1017.41 1015.99 1015.57 1015.00 1015.40 1015.09 1015.01 1013.42 1011.78 1011.00 1011.88 1012.00 1012.07 1012.77 1013.21 1013.85 1013.76 1013.13 1011.11 1008.95 1007.66 1007.08 1007.98 1007.96 1007.29 1006.90 1006.45
1014.48 1014.86 1015.19 1015.59 1015.92 1016.21 1017.02 1017.30 1017.50 1018.42 1018.08 1017.24 1017.38 1017.30 1017.27 1017.42 1017.24 1016.72 1016.01 1015.23 1014.52 1014.09 1014.16 1013.99 1012.90 1011.36 1010.69 1011.15 1011.12 1011.81 1012.38 1012.91 1012.78 1013.05 1012.64 1010.48 1008.33 1007.83 1007.98 1008.58 1008.46 1007.23 1006.96 1007.17
1014.11 1014.50 1014.84 1015.11 1015.34 1015.64 1016.25 1016.65 1016.97 1017.55 1017.06 1016.08 1016.48 1016.56 1016.36 1016.14 1016.23 1016.31 1015.90 1015.74 1014.17 1014.16 1013.22 1012.85 1011.73 1011.21 1010.34 1010.35 1010.25 1010.03 1011.02 1011.90 1012.19 1012.54 1012.13 1010.57 1008.36 1008.46 1008.34 1007.58 1007.24 1007.08 1007.01 1007.37
1013.67 1014.01 1014.25 1014.46 1014.75 1015.04 1015.43 1016.08 1016.22 1016.49 1016.93 1015.40 1015.22 1014.92 1014.53 1014.71 1015.02 1015.43 1015.52 1014.82 1014.12 1014.17 1012.68 1011.79 1011.21 1010.93 1010.30 1009.62 1009.86 1009.33 1010.11 1009.87 1010.58 1010.77 1010.19 1009.01 1008.09 1007.63 1007.15 1007.03 1007.30 1007.24 1007.35 1008.03
1013.27 1013.46 1013.69 1013.89 1014.07 1014.31 1014.63 1015.01 1015.63 1016.37 1016.14 1015.01 1014.44 1013.20 1012.84 1013.47 1013.48 1013.78 1014.28 1013.24 1013.75 1013.22 1013.04 1011.59 1010.28 1009.84 1008.88 1009.17 1009.22 1009.17 1009.19 1009.04 1009.81 1010.16 1009.06 1008.56 1008.15 1007.68 1007.41 1007.08 1007.00 1007.06 1007.51 1008.40
1012.77 1012.98 1013.09 1013.21 1013.29 1013.39 1013.54 1013.69 1014.18 1014.91 1014.80 1013.49 1010.78 1010.76 1010.95 1010.54 1011.33 1011.71 1011.47 1012.07 1012.61 1012.13 1012.86 1010.82 1009.51 1009.11 1007.59 1008.15 1008.14 1008.48 1008.25 1008.64 1008.99 1009.14 1008.59 1008.22 1007.68 1007.39 1007.21 1007.39 1007.56 1007.65 1008.15 1008.95
1012.27 1012.32 1012.11 1011.90 1011.81 1011.85 1011.98 1011.98 1012.11 1012.67 1013.40 1011.89 1010.51 1010.07 1009.33 1009.02 1009.15 1009.14 1009.78 1010.52 1011.21 1011.86 1011.84 1010.04 1008.95 1008.81 1008.22 1008.49 1008.55 1008.21 1007.75 1007.96 1008.44 1008.07 1007.75 1007.65 1007.32 1006.88 1006.96 1007.54 1008.25 1008.85 1009.18 1009.62
1011.55 1011.53 1011.28 1010.69 1009.97 1009.96 1011.24 1010.56 1010.65 1010.77 1011.68 1011.99 1010.71 1008.76 1007.91 1007.11 1006.59 1007.17 1007.73 1008.65 1009.92 1010.57 1010.08 1008.58 1008.30 1007.52 1007.75 1008.62 1008.78 1007.61 1007.14 1006.96 1006.69 1006.96 1006.91 1006.99 1006.84 1006.90 1006.81 1007.20 1007.68 1008.38 1009.24 1009.89
1011.09 1010.86 1010.36 1009.41 1009.73 1009.77 1009.97 1009.74 1008.88 1009.48 1011.09 1011.24 1010.54 1008.41 1007.06 1006.49 1006.29 1006.03 1007.16 1008.03 1008.46 1009.05 1008.21 1008.22 1008.09 1007.86 1007.63 1008.14 1007.94 1007.16 1006.86 1006.46 1006.40 1006.50 1006.89 1006.88 1006.79 1006.87 1006.90 1007.30 1007.93 1008.69 1009.66 1010.03
1010.45 1009.90 1009.63 1009.19 1009.53 1010.05 1009.65 1009.08 1008.86 1009.34 1010.37 1010.82 1009.91 1008.18 1007.49 1006.81 1006.86 1006.49 1007.24 1007.52 1007.58 1008.15 1008.35 1008.38 1008.48 1008.22 1008.15 1007.96 1007.30 1006.73 1006.08 1006.08 1006.07 1006.18 1006.33 1006.25 1006.44 1006.79 1007.39 1007.90 1008.72 1009.60 1010.27 1010.64
1009.82 1009.32 1008.94 1008.98 1009.21 1009.30 1008.79 1008.62 1009.04 1009.43 1009.97 1009.83 1009.36 1008.66 1008.00 1007.52 1007.70 1007.75 1007.65 1007.68 1008.21 1008.57 1008.59 1008.67 1008.70 1008.58 1007.63 1006.51 1006.45 1006.11 1005.82 1005.89 1005.78 1005.87 1006.02 1006.23 1006.68 1007.31 1008.01 1008.80 1009.34 1010.17 1010.69 1010.98
1009.36 1009.11 1008.86 1008.86 1008.42 1008.14 1008.23 1008.59 1009.29 1009.75 1009.47 1009.45 1009.13 1008.98 1008.38 1008.15 1008.17 1008.68 1008.89 1009.04 1009.48 1009.61 1009.46 1009.23 1009.15 1007.90 1006.40 1005.46 1005.01 1004.95 1005.33 1005.70 1005.84 1006.02 1006.71 1007.04 1007.55 1008.01 1008.65 1008.87 1009.44 1009.98 1010.65 1011.09
1009.50 1009.62 1009.38 1008.40 1007.85 1008.16 1008.50 1009.02 1009.39 1009.57 1009.53 1009.20 1008.96 1008.84 1008.85 1008.38 1008.59 1008.75 1009.06 1009.40 1009.59 1009.78 1009.47 1009.43 1009.02 1007.69 1005.82 1004.79 1004.67 1004.59 1004.92 1005.25 1005.63 1005.94 1006.36 1006.79 1007.64 1008.20 1008.72 1009.30 1009.88 1010.51 1010.96 1011.60
1009.25 1009.23 1009.12 1009.09 1008.89 1009.01 1009.20 1009.28 1009.11 1009.05 1009.03 1008.93 1008.86 1008.75 1008.76 1008.70 1008.56 1008.92 1009.40 1009.46 1009.70 1009.57 1009.34 1009.53 1008.41 1006.51 1005.95 1005.48 1004.87 1004.66 1004.87 1005.45 1005.97 1006.10 1006.44 1007.23 1007.97 1008.50 1009.17 1009.76 1010.45 1011.09 1011.64 1012.28
1009.07 1009.07 1009.09 1009.46 1009.51 1009.58 1009.72 1009.61 1008.94 1008.58 1008.21 1008.13 1007.98 1008.37 1008.46 1008.53 1008.19 1008.63 1008.90 1009.36 1009.20 1008.85 1009.19 1008.41 1006.86 1006.30 1006.34 1006.24 1005.98 1005.90 1006.10 1006.49 1006.63 1007.06 1007.52 1008.29 1008.78 1009.38 1010.01 1010.81 1011.38 1011.92 1012.42 1012.88
1009.76 1009.78 1009.80 1010.14 1009.87 1009.74 1009.42 1009.07 1008.70 1008.11 1007.88 1007.79 1007.95 1008.11 1008.17 1008.36 1008.52 1008.67 1008.94 1008.79 1008.88 1008.90 1008.69 1007.46 1006.55 1006.52 1006.77 1006.84 1006.92 1007.03 1007.68 1007.91 1008.30 1008.79 1009.21 1009.55 1010.18 1011.04 1011.30 1011.64 1012.09 1012.59 1013.25 1013.67
1010.02 1010.08 1009.87 1009.53 1009.32 1009.16 1008.88 1008.58 1008.31 1007.58 1007.17 1007.26 1007.39 1007.41 1007.75 1008.16 1008.48 1008.44 1008.67 1008.98 1008.64 1008.38 1007.79 1007.37 1006.74 1006.82 1007.09 1007.52 1007.85 1008.21 1008.68 1009.09 1009.79 1010.31 1010.39 1010.89 1011.32 1011.79 1012.42 1012.71 1013.08 1013.64 1014.01 1014.45
1010.04 1009.74 1009.50 1009.42 1009.62 1009.14 1008.77 1008.16 1007.84 1007.06 1006.65 1006.46 1006.50 1006.87 1007.44 1007.74 1007.83 1008.47 1008.45 1008.63 1008.42 1007.91 1007.31 1006.92 1006.80 1007.15 1007.51 1007.96 1008.41 1009.02 1009.55 1009.91 1010.49 1010.77 1011.16 1011.65 1012.05 1012.39 1012.83 1013.21 1013.88 1014.71 1014.78 1015.13
1009.31 1009.10 1009.24 1009.37 1009.23 1009.05 1008.59 1007.88 1007.28 1006.73 1006.33 1006.34 1006.46 1006.72 1006.85 1007.26 1007.64 1008.05 1007.93 1008.03 1007.85 1007.52 1007.23 1007.01 1007.03 1007.28 1007.75 1008.23 1008.86 1009.35 1009.94 1010.38 1010.66 1011.02 1011.40 1011.85 1012.23 1012.46 1012.89 1013.65 1014.42 1014.80 1015.36 1015.65
Wind_Speed
10 8 7 6 6 6 8 4 3 3 2 6 2 3 3 3 4 1 5 3 2 3 1 4 4 3 2 10 3 3 2 5 14 24 20 15 5 3 15 12 18 7 17 22
9 9 7 6 6 7 4 4 2 3 1 4 5 2 2 4 2 3 1 6 5 2 4 3 3 3 2 8 6 5 7 2 5 13 14 15 13 18 16 11 3 19 16 14
9 9 8 7 5 9 5 4 3 5 2 1 5 1 4 6 4 5 8 5 4 3 5 7 5 4 4 2 2 3 2 3 4 3 5 7 7 8 12 13 13 14 17 22
9 9 8 7 6 9 6 3 4 2 3 3 8 3 3 5 4 5 7 6 13 5 4 7 12 7 4 6 8 3 4 3 4 3 3 4 6 14 14 8 15 17 18 17
11 10 9 9 8 10 5 5 4 1 2 1 10 9 6 10 4 4 6 9 8 13 15 18 8 4 3 6 5 3 5 4 2 5 6 5 9 14 13 6 5 4 4 7
12 11 10 10 11 7 3 1 1 4 3 4 4 5 7 4 4 8 12 11 9 13 19 15 19 14 14 7 7 7 6 4 2 4 4 3 8 8 9 3 5 2 5 6
12 12 11 9 11 9 3 2 3 4 3 4 7 4 5 6 6 11 7 11 11 5 13 13 8 12 13 11 14 11 5 5 4 3 6 5 7 6 7 11 11 13 12 15
13 12 11 11 12 12 3 4 4 4 3 6 10 13 13 11 12 16 16 16 15 11 8 6 7 6 7 12 16 17 14 7 3 3 5 7 8 6 7 7 7 10 15 16
13 12 12 12 13 14 3 3 4 2 1 8 12 8 12 10 5 6 13 16 17 6 4 7 12 7 3 5 5 19 10 9 4 2 2 5 3 1 2 2 5 1 4 5
13 12 13 13 15 16 5 3 6 3 5 7 4 6 7 4 4 4 3 5 5 9 7 8 9 6 6 7 8 6 7 4 14 6 5 7 6 6 1 2 5 3 1 2
14 13 14 16 17 18 9 3 6 7 4 11 11 10 14 7 5 6 3 7 5 5 10 6 3 4 5 3 5 9 8 7 5 5 6 8 6 2 7 8 4 4 3 3
13 15 16 17 18 20 17 7 6 8 8 6 5 16 21 17 17 6 8 9 4 3 5 5 4 5 2 7 5 2 3 8 7 9 9 7 3 4 4 3 4 5 4 4
15 14 15 17 18 21 21 7 5 4 9 12 14 17 22 18 17 17 15 13 10 9 7 6 3 7 6 6 5 5 3 4 4 4 4 7 7 5 6 4 6 4 4 6
10 13 16 19 21 24 24 11 9 10 4 6 13 12 17 23 21 23 22 17 14 12 3 6 3 4 2 4 3 4 5 7 6 3 6 5 8 6 5 3 3 0 4 4
12 16 18 20 23 25 17 11 11 13 9 4 5 5 16 13 17 26 24 23 20 9 6 7 4 3 1 1 3 3 5 7 6 6 7 4 6 5 2 4 5 6 6 6
13 12 18 21 28 20 4 2 4 12 9 5 6 4 7 13 11 20 25 19 12 7 5 2 3 1 4 4 4 4 4 5 7 5 5 6 5 5 3 3 4 5 6 6
10 16 20 12 8 1 2 4 2 17 9 1 4 6 2 3 3 4 8 6 4 5 3 2 1 1 2 3 3 5 6 7 6 5 4 4 3 5 2 2 5 7 6 6
16 18 16 8 16 4 4 3 8 8 4 1 4 4 3 5 3 3 2 2 2 3 2 2 2 2 2 3 5 6 8 4 5 7 7 7 3 4 4 5 6 7 6 5
13 16 15 1 1 3 3 5 17 5 3 3 2 3 3 3 2 3 4 2 4 3 3 1 3 1 5 5 9 8 8 6 6 3 5 5 5 6 5 6 7 7 7 6
11 3 2 2 3 6 5 4 3 2 3 1 2 2 1 2 2 1 2 3 2 2 4 2 2 5 7 8 8 6 8 9 6 5 2 2 2 5 6 6 5 5 8 7
2 2 1 4 7 2 3 1 3 1 2 1 2 2 3 1 2 0 1 1 0 1 4 4 3 5 6 9 14 11 7 6 7 7 6 4 6 7 6 6 6 6 6 5
3 3 2 1 3 3 4 1 2 2 3 2 3 3 4 2 3 3 2 3 2 4 4 3 4 5 5 7 7 5 7 9 8 6 7 6 6 7 6 6 6 5 6 7
2 1 3 5 4 7 4 3 3 2 1 1 2 2 2 2 1 2 1 3 4 2 1 5 5 1 3 5 4 10 9 8 8 8 8 7 7 7 4 6 4 7 7 6
3 3 6 4 4 3 4 3 2 2 2 2 2 2 2 2 1 2 2 3 2 3 3 5 1 3 3 5 5 9 7 8 8 7 6 8 8 5 5 5 4 7 6 6
2 1 3 4 2 2 4 1 3 3 2 3 3 3 2 2 2 2 2 2 4 5 6 3 2 5 5 3 3 6 6 6 5 3 5 7 6 7 6 4 5 6 6 7
2 3 3 1 1 3 2 3 4 3 2 1 2 3 4 3 3 3 6 3 5 5 3 2 3 5 4 5 5 5 5 6 6 5 5 6 5 6 6 6 6 4 4 6
4 3 2 2 3 4 3 2 3 2 2 1 1 3 5 1 1 3 4 5 4 3 1 2 2 5 6 7 6 7 6 6 5 6 5 5 6 7 7 7 4 5 4 4
Wind_Direction
161 159 154 147 137 115 48 83 69 313 298 194 162 196 197 321 293 176 248 327 247 227 29 296 288 243 3 16 340 346 354 288 260 249 253 281 313 296 237 231 232 251 239 252
173 166 158 154 145 116 110 85 155 319 285 193 224 258 268 265 266 215 281 252 226 164 207 281 263 5 60 16 22 4 357 284 273 288 273 247 245 257 258 259 248 237 241 255
178 178 171 163 154 133 87 89 85 340 29 128 140 185 251 248 190 237 250 228 340 295 243 218 254 214 163 150 174 128 234 261 240 300 353 328 328 355 337 286 247 253 253 247
193 189 187 170 163 131 88 55 239 185 192 243 210 190 263 261 252 239 197 206 226 202 266 262 236 238 200 202 183 136 123 291 272 200 305 314 322 322 319 346 285 225 255 253
199 199 193 180 174 125 76 130 135 357 191 168 185 199 229 231 226 223 259 267 259 228 238 227 251 320 156 233 167 171 199 206 254 278 225 237 287 279 280 315 310 48 340 273
204 201 200 192 184 131 116 233 338 105 263 149 146 217 214 223 153 249 236 252 294 265 244 252 250 249 260 221 180 193 207 187 208 255 222 241 260 232 241 168 236 252 260 234
203 203 206 203 202 164 110 150 112 100 259 179 209 226 226 239 247 257 287 294 267 237 321 302 256 233 231 210 218 204 214 196 197 229 200 237 248 127 173 233 224 211 245 250
203 206 210 217 214 176 154 155 125 128 231 216 230 238 248 268 265 267 270 261 256 273 282 283 231 229 207 228 226 213 209 189 242 214 219 288 282 192 175 191 254 203 211 237
203 212 216 221 225 227 126 201 136 176 194 233 223 222 228 238 237 277 265 270 255 227 207 240 249 216 162 182 233 220 197 209 208 152 211 242 280 10 139 117 293 238 273 290
208 217 220 225 229 231 160 208 186 191 241 226 191 203 214 189 209 242 323 320 311 177 199 235 251 235 190 179 182 150 175 183 225 216 237 278 253 254 188 173 232 251 217 270
209 219 227 228 230 218 197 210 180 188 259 260 255 247 242 239 213 227 308 353 239 227 211 221 210 245 208 176 199 163 161 162 180 185 222 261 214 260 184 211 230 241 224 190
215 230 234 232 228 223 215 226 192 206 228 265 283 252 237 230 228 202 212 229 292 298 285 207 170 220 214 164 206 154 171 180 175 168 208 223 246 227 274 268 234 240 214 184
225 230 236 235 236 231 222 223 178 196 243 260 249 239 237 240 233 227 243 240 236 235 213 271 238 229 152 169 220 137 200 143 174 146 221 229 224 242 245 274 271 263 190 167
234 241 246 250 247 240 234 227 209 204 236 251 259 223 236 235 226 222 223 233 243 262 283 282 224 257 217 173 172 166 183 138 168 279 280 287 273 225 212 246 273 69 77 140
250 258 261 266 268 257 248 231 225 203 202 264 259 309 267 251 228 221 223 222 228 223 236 224 192 271 180 105 46 246 185 166 161 212 222 194 250 279 215 203 209 204 157 148
272 290 288 279 273 230 194 216 195 190 196 249 257 241 240 275 187 223 218 212 212 213 222 208 235 240 107 139 208 250 216 195 175 208 202 213 248 280 231 231 252 160 160 161
305 292 285 287 205 189 163 228 223 170 167 257 243 252 250 291 254 353 152 144 179 195 199 100 109 11 85 113 179 235 220 218 237 219 191 252 220 242 273 203 112 114 101 106
287 291 304 303 181 193 256 261 143 125 121 222 256 282 324 7 352 60 90 164 157 25 134 51 90 351 65 243 203 250 258 254 268 254 217 225 219 133 93 102 116 115 122 116
296 297 297 103 157 204 225 163 156 183 186 211 206 215 249 355 17 20 9 27 48 315 55 3 72 300 233 214 206 214 226 202 233 270 253 201 185 145 137 141 119 137 146 134
298 320 31 343 235 294 325 35 95 8 262 10 167 23 305 50 69 59 83 29 103 113 247 77 155 252 235 237 231 217 230 214 183 117 71 49 235 163 179 165 140 141 157 143
44 40 240 259 311 50 42 186 138 246 311 214 192 154 137 271 99 132 64 155 144 119 259 132 252 264 243 241 236 226 206 180 176 148 166 185 194 168 152 145 143 141 137 136
240 275 232 323 36 21 61 312 309 130 221 206 159 212 177 196 149 108 217 172 95 225 155 152 260 252 326 304 259 230 162 153 155 152 130 143 144 132 127 125 132 130 118 124
338 39 345 52 319 22 94 309 300 320 349 141 87 73 119 19 99 93 122 96 219 97 85 226 228 27 22 27 62 66 61 78 80 76 81 99 93 76 98 117 96 122 121 125
44 34 330 141 304 252 204 212 231 264 223 189 184 161 167 166 124 170 137 235 209 236 239 238 307 126 98 65 58 84 69 68 71 71 92 95 98 86 62 78 107 121 125 122
305 242 246 220 210 272 271 292 282 254 245 203 186 153 146 175 159 205 95 299 236 210 230 243 215 147 121 98 87 95 102 98 95 82 92 96 102 103 88 49 86 93 100 109
248 244 262 316 66 295 301 254 260 242 275 200 131 119 155 205 174 143 215 162 226 249 224 224 120 131 120 120 104 106 114 109 108 98 101 105 102 112 116 88 76 66 106 123
218 234 179 175 211 216 258 256 261 301 309 7 106 112 196 118 157 229 176 205 220 232 235 101 109 152 148 132 128 125 117 115 126 127 113 105 112 110 95 98 99 102 92 98